Change the Weather History Date:

Tuesday, November 15, 2011

  Actual Average Record
Temperature  
Mean Temperature 35 °F -  
Max Temperature 42 °F 38 °F 66 °F (1953)
Min Temperature 26 °F 20 °F -4 °F (2014)
Degree Days  
Heating Degree Days 30    
Moisture  
Dew Point 22 °F    
Average Humidity 62    
Maximum Humidity 93    
Minimum Humidity 42    
Precipitation  
Precipitation 0.00 in - - ()
Sea Level Pressure  
Sea Level Pressure 29.64 in    
Wind  
Wind Speed 10 mph (West)    
Max Wind Speed 29 mph    
Max Gust Speed 37 mph    
Visibility 10 miles    
Events Snow    
Averages and records for this station are not official NWS values.
T = Trace of Precipitation, MM = Missing Value Source: NWS Daily Summary

Daily Weather History Graph

Daily Weather History Graph

Search for Another Location

Airport or City:

Trip Planner

Search our weather history database for the weather conditions in past years. The results will help you decide how hot, cold, wet, or windy it might be!

Date:

Astronomy

Nov. 15, 2011 Rise Set
Actual Time 7:20 AM CST 4:50 PM CST
Civil Twilight 6:48 AM CST 5:22 PM CST
Nautical Twilight 6:12 AM CST 5:58 PM CST
Astronomical Twilight 5:37 AM CST 6:33 PM CST
Moon 8:59 PM CST (11/15) 11:22 AM CST (11/15)
Length of Visible Light 10h 34m
Length of Day
9h 30m
Waning Gibbous, 79% of the Moon is Illuminated
Nov 15
Waning Gibbous
Nov 18
Last Quarter
Nov 25
New
Dec 2
First Quarter
Dec 10
Full

Hourly Weather History & Observations

Time (CST) Temp. Windchill Dew Point Humidity Pressure Visibility Wind Dir Wind Speed Gust Speed Precip Events Conditions
12:14 AM 28.4 °F 20.4 °F 21.2 °F 74% 29.54 in 10.0 mi South 8.1 mph - N/A   Overcast
12:34 AM 30.2 °F 24.3 °F 23.0 °F 75% 29.54 in 10.0 mi South 5.8 mph - N/A   Overcast
12:54 AM 32.0 °F 27.5 °F 23.0 °F 69% 29.53 in 10.0 mi SSE 4.6 mph - N/A   Mostly Cloudy
1:13 AM 33.8 °F - 21.2 °F 60% 29.52 in 10.0 mi Calm Calm - N/A   Mostly Cloudy
1:34 AM 33.8 °F - 21.2 °F 60% 29.52 in 10.0 mi Calm Calm - N/A   Mostly Cloudy
1:53 AM 32.0 °F 27.5 °F 23.0 °F 69% 29.51 in 10.0 mi North 4.6 mph - N/A   Mostly Cloudy
2:14 AM 32.0 °F 28.7 °F 21.2 °F 64% 29.51 in 10.0 mi North 3.5 mph - N/A   Scattered Clouds
2:34 AM 32.0 °F 27.5 °F 23.0 °F 69% 29.51 in 10.0 mi NNE 4.6 mph - N/A   Mostly Cloudy
2:53 AM 33.8 °F 29.6 °F 24.8 °F 70% 29.52 in 10.0 mi North 4.6 mph - N/A   Overcast
3:13 AM 33.8 °F - 23.0 °F 65% 29.52 in 10.0 mi Calm Calm - N/A   Overcast
3:34 AM 35.6 °F 31.7 °F 23.0 °F 60% 29.52 in 10.0 mi West 4.6 mph - N/A   Overcast
3:53 AM 35.6 °F - 23.0 °F 60% 29.51 in 10.0 mi Calm Calm - N/A   Mostly Cloudy
4:14 AM 33.8 °F 29.6 °F 23.0 °F 65% 29.51 in 10.0 mi NW 4.6 mph - N/A   Mostly Cloudy
4:34 AM 35.6 °F - 23.0 °F 60% 29.50 in 10.0 mi Calm Calm - N/A   Mostly Cloudy
4:53 AM 33.8 °F - 24.8 °F 70% 29.51 in 10.0 mi Calm Calm - N/A   Overcast
5:13 AM 33.8 °F 30.8 °F 24.8 °F 70% 29.53 in 10.0 mi NW 3.5 mph - N/A   Light Drizzle
5:34 AM 35.6 °F 30.7 °F 28.4 °F 75% 29.54 in 10.0 mi NW 5.8 mph - N/A   Drizzle
5:53 AM 35.6 °F 31.7 °F 28.4 °F 75% 29.53 in 10.0 mi North 4.6 mph - N/A   Light Drizzle
7:14 AM 30.2 °F 26.7 °F 26.6 °F 86% 29.53 in 10.0 mi WSW 3.5 mph - N/A   Clear
7:33 AM 28.4 °F 22.2 °F 24.8 °F 86% 29.55 in 10.0 mi WSW 5.8 mph - N/A   Clear
7:54 AM 30.2 °F 21.3 °F 28.4 °F 93% 29.57 in 10.0 mi WSW 10.4 mph - N/A   Clear
8:14 AM 32.0 °F 23.0 °F 28.4 °F 87% 29.58 in 10.0 mi West 11.5 mph - N/A   Clear
8:34 AM 33.8 °F 24.8 °F 26.6 °F 75% 29.58 in 10.0 mi West 12.7 mph - N/A   Clear
8:54 AM 33.8 °F 26.4 °F 26.6 °F 75% 29.58 in 10.0 mi West 9.2 mph - N/A   Clear
9:14 AM 35.6 °F 30.7 °F 26.6 °F 70% 29.59 in 10.0 mi WSW 5.8 mph - N/A   Clear
9:33 AM 35.6 °F 30.7 °F 28.4 °F 75% 29.60 in 10.0 mi SW 5.8 mph - N/A   Clear
9:54 AM 37.4 °F 33.8 °F 28.4 °F 70% 29.59 in 10.0 mi SW 4.6 mph - N/A   Clear
10:13 AM 39.2 °F 33.6 °F 26.6 °F 61% 29.59 in 10.0 mi SW 8.1 mph - N/A   Clear
10:33 AM 39.2 °F 31.6 °F 26.6 °F 61% 29.60 in 10.0 mi SW 12.7 mph - N/A   Clear
10:53 AM 41.0 °F 33.1 °F 26.6 °F 57% 29.60 in 10.0 mi WSW 15.0 mph - N/A   Clear
11:13 AM 42.8 °F 35.4 °F 26.6 °F 53% 29.61 in 10.0 mi WSW 15.0 mph - N/A   Clear
11:33 AM 42.8 °F 33.5 °F 28.4 °F 57% 29.60 in 10.0 mi WSW 23.0 mph - N/A   Scattered Clouds
11:54 AM 42.8 °F 35.1 °F 28.4 °F 57% 29.60 in 10.0 mi WSW 16.1 mph 24.2 mph N/A   Scattered Clouds
12:14 PM 42.8 °F 34.5 °F 28.4 °F 57% 29.61 in 10.0 mi West 18.4 mph 28.8 mph N/A   Scattered Clouds
12:34 PM 39.2 °F 28.7 °F 26.6 °F 61% 29.63 in 10.0 mi West 23.0 mph 31.1 mph N/A   Overcast
12:54 PM 39.2 °F 28.5 °F 26.6 °F 61% 29.64 in 10.0 mi West 24.2 mph 27.6 mph N/A   Overcast
1:13 PM 39.2 °F 29.0 °F 21.2 °F 49% 29.65 in 10.0 mi West 21.9 mph 31.1 mph N/A   Mostly Cloudy
1:34 PM 39.2 °F 29.3 °F 21.2 °F 49% 29.65 in 10.0 mi West 20.7 mph 32.2 mph N/A   Mostly Cloudy
1:53 PM 39.2 °F 28.0 °F 17.6 °F 42% 29.66 in 10.0 mi West 26.5 mph 36.8 mph N/A   Overcast
2:14 PM 39.2 °F 27.6 °F 17.6 °F 42% 29.67 in 10.0 mi West 28.8 mph 36.8 mph N/A   Mostly Cloudy
2:33 PM 39.2 °F 28.3 °F 17.6 °F 42% 29.68 in 10.0 mi West 25.3 mph 34.5 mph N/A   Scattered Clouds
3:14 PM 35.6 °F 23.2 °F 17.6 °F 48% 29.70 in 10.0 mi West 26.5 mph 35.7 mph N/A   Overcast
3:34 PM 35.6 °F 24.5 °F 17.6 °F 48% 29.72 in 10.0 mi West 20.7 mph 32.2 mph N/A   Mostly Cloudy
3:54 PM 35.6 °F 24.2 °F 17.6 °F 48% 29.73 in 10.0 mi West 21.9 mph 31.1 mph N/A   Mostly Cloudy
4:13 PM 35.6 °F 25.5 °F 19.4 °F 52% 29.73 in 7.0 mi West 17.3 mph 31.1 mph N/A Snow Light Snow
4:34 PM 33.8 °F 21.9 °F 19.4 °F 56% 29.75 in 4.0 mi West 21.9 mph 33.4 mph N/A Snow Light Snow
4:53 PM 33.8 °F 22.5 °F 19.4 °F 56% 29.76 in 10.0 mi West 19.6 mph 26.5 mph N/A   Overcast
5:14 PM 33.8 °F 22.2 °F 17.6 °F 52% 29.77 in 10.0 mi West 20.7 mph 34.5 mph N/A   Overcast
5:34 PM 32.0 °F 19.5 °F 15.8 °F 51% 29.79 in 10.0 mi West 21.9 mph 31.1 mph N/A   Mostly Cloudy
5:54 PM 30.2 °F 18.1 °F 15.8 °F 55% 29.80 in 10.0 mi West 18.4 mph 27.6 mph N/A   Scattered Clouds
6:14 PM 30.2 °F 16.8 °F 15.8 °F 55% 29.81 in 10.0 mi WNW 23.0 mph 34.5 mph N/A   Overcast
6:34 PM 30.2 °F 17.4 °F 14.0 °F 51% 29.83 in 10.0 mi West 20.7 mph 35.7 mph N/A   Overcast
6:53 PM 30.2 °F 16.2 °F 12.2 °F 47% 29.84 in 10.0 mi West 25.3 mph 35.7 mph N/A   Overcast
7:14 PM 28.4 °F 15.4 °F 12.2 °F 51% 29.84 in 10.0 mi West 19.6 mph 34.5 mph N/A   Mostly Cloudy
7:34 PM 28.4 °F 14.4 °F 14.0 °F 55% 29.85 in 10.0 mi West 23.0 mph 28.8 mph N/A   Mostly Cloudy
7:54 PM 28.4 °F 15.1 °F 14.0 °F 55% 29.85 in 10.0 mi West 20.7 mph 27.6 mph N/A   Overcast
8:14 PM 28.4 °F 16.2 °F 14.0 °F 55% 29.86 in 10.0 mi West 17.3 mph 29.9 mph N/A   Overcast
8:33 PM 28.4 °F 15.8 °F 15.8 °F 59% 29.87 in 10.0 mi West 18.4 mph 25.3 mph N/A   Overcast
8:54 PM 26.6 °F 14.3 °F 15.8 °F 64% 29.88 in 10.0 mi West 16.1 mph 23.0 mph N/A   Mostly Cloudy
9:14 PM 26.6 °F 15.2 °F 15.8 °F 64% 29.88 in 10.0 mi West 13.8 mph - N/A   Clear
9:34 PM 26.6 °F 15.2 °F 15.8 °F 64% 29.89 in 10.0 mi West 13.8 mph - N/A   Clear
9:54 PM 26.6 °F 14.7 °F 15.8 °F 64% 29.89 in 10.0 mi West 15.0 mph 20.7 mph N/A   Scattered Clouds
10:13 PM 26.6 °F 15.2 °F 15.8 °F 64% 29.89 in 10.0 mi West 13.8 mph 21.9 mph N/A   Overcast
10:34 PM 26.6 °F 15.7 °F 15.8 °F 64% 29.90 in 10.0 mi West 12.7 mph - N/A   Overcast
10:54 PM 26.6 °F 14.3 °F 14.0 °F 59% 29.90 in 10.0 mi West 16.1 mph 23.0 mph N/A   Overcast
11:14 PM 26.6 °F 14.7 °F 14.0 °F 59% 29.90 in 10.0 mi West 15.0 mph 19.6 mph N/A   Overcast
11:34 PM 28.4 °F 16.6 °F 12.2 °F 51% 29.90 in 10.0 mi WNW 16.1 mph 20.7 mph N/A   Overcast
11:54 PM 28.4 °F 16.2 °F 10.4 °F 47% 29.90 in 10.0 mi West 17.3 mph - N/A   Overcast